User: anonymous   Login
Location: Kirkcaldy
(50.3333°N, 113.2333°W)
Time: 23:11:47
(UTC+00:00)
Language:

BUGSAT 1 - Orbit

View from above orbital plane
View from above orbital plane
View from above satellite
View from above satellite

Ground track
Ground track

The orbit data is extracted from the following two-line orbital elements,

1 40014U 14033E   23334.82468082  .00008309  00000-0  64015-3 0  9992
2 40014  98.1519   1.4977 0036493  78.2456 282.2858 15.01382284515717
Epoch (UTC): 30 November 2023 19:47:32
Eccentricity: 0.0036493
inclination: 98.1519°
perigee height: 537 km
apogee height: 588 km
right ascension of ascending node: 1.4977°
argument of perigee: 78.2456°
revolutions per day: 15.01382284
mean anomaly at epoch: 282.2858°
orbit number at epoch: 51571

The dashed part of the orbit path shows where the satellite is in the earth's shadow,  

DLR